| time (UTC) | temp F | wind direction | speed MPH | gust MPH | rain 1hr in | rain 24hr in | rain mn in | humidity % | barometer mb |
| 20260901174235 | 73 | 247 | 4.0 | 10.0 | 0.00 | 0.48 | 0.00 | 44 | 1019.7 |
| 20260901173728 | 74 | 245 | 5.0 | 13.0 | 0.00 | 0.48 | 0.00 | 41 | 1019.7 |
| 20260901173223 | 74 | 256 | 6.0 | 13.0 | 0.00 | 0.48 | 0.00 | 44 | 1019.8 |
| 20260901172715 | 73 | 145 | 4.0 | 7.0 | 0.00 | 0.48 | 0.00 | 45 | 1019.8 |
| 20260901172249 | 73 | 130 | 2.0 | 8.0 | 0.00 | 0.48 | 0.00 | 48 | 1019.8 |
| 20260901171726 | 73 | 126 | 4.0 | 8.0 | 0.00 | 0.48 | 0.00 | 46 | 1019.8 |
| 20260901171220 | 72 | 126 | 1.0 | 4.0 | 0.00 | 0.48 | 0.00 | 44 | 1019.8 |
| 20260901170714 | 71 | 126 | 1.0 | 5.0 | 0.00 | 0.48 | 0.00 | 47 | 1019.8 |
| 20260901170229 | 70 | 126 | 3.0 | 5.0 | 0.00 | 0.48 | 0.00 | 49 | 1019.8 |
| 20260901165723 | 70 | 126 | 3.0 | 5.0 | 0.00 | 0.48 | 0.00 | 51 | 1019.8 |
| 20260901165217 | 68 | 126 | 1.0 | 5.0 | 0.00 | 0.48 | 0.00 | 51 | 1019.8 |
| 20260901164730 | 68 | 127 | 4.0 | 8.0 | 0.00 | 0.48 | 0.00 | 50 | 1019.9 |
| 20260901164227 | 67 | 126 | 4.0 | 8.0 | 0.00 | 0.48 | 0.00 | 53 | 1019.8 |
| 20260901163720 | 67 | 126 | 5.0 | 8.0 | 0.00 | 0.48 | 0.00 | 50 | 1019.8 |
| 20260901163215 | 68 | 126 | 5.0 | 8.0 | 0.00 | 0.48 | 0.00 | 51 | 1019.8 |
| 20260901162728 | 67 | 152 | 4.0 | 7.0 | 0.00 | 0.48 | 0.00 | 51 | 1019.9 |
| 20260901162222 | 67 | 158 | 3.0 | 5.0 | 0.00 | 0.48 | 0.00 | 51 | 1019.9 |
| 20260901161715 | 66 | 159 | 2.0 | 5.0 | 0.00 | 0.48 | 0.00 | 50 | 1019.8 |
| 20260901161230 | 66 | 159 | 2.0 | 5.0 | 0.00 | 0.48 | 0.00 | 50 | 1019.8 |
| 20260901160723 | 65 | 159 | 1.0 | 5.0 | 0.00 | 0.48 | 0.00 | 54 | 1019.8 |
| 20260901160239 | 64 | 158 | 0.0 | 0.0 | 0.00 | 0.48 | 0.00 | 56 | 1019.8 |
| 20260901155715 | 64 | 158 | 0.0 | 0.0 | 0.00 | 0.48 | 0.00 | 55 | 1019.8 |
| 20260901155229 | 64 | 158 | 0.0 | 0.0 | 0.00 | 0.48 | 0.00 | 55 | 1019.8 |
| 20260901154744 | 64 | 158 | 0.0 | 2.0 | 0.00 | 0.48 | 0.00 | 55 | 1019.8 |
| 20260901154217 | 64 | 158 | 0.0 | 2.0 | 0.00 | 0.48 | 0.00 | 53 | 1019.9 |
| 20260901153751 | 64 | 158 | 1.0 | 3.0 | 0.00 | 0.48 | 0.00 | 54 | 1019.8 |
| 20260901153244 | 63 | 158 | 1.0 | 3.0 | 0.00 | 0.48 | 0.00 | 53 | 1019.8 |
| 20260901152716 | 63 | 158 | 2.0 | 6.0 | 0.00 | 0.48 | 0.00 | 56 | 1019.8 |
| 20260901152251 | 63 | 158 | 3.0 | 6.0 | 0.00 | 0.48 | 0.00 | 58 | 1020.0 |
| 20260901151723 | 62 | 158 | 4.0 | 6.0 | 0.00 | 0.48 | 0.00 | 59 | 1020.0 |
| 20260901151238 | 62 | 158 | 2.0 | 3.0 | 0.00 | 0.48 | 0.00 | 59 | 1020.0 |
| 20260901150714 | 61 | 158 | 0.0 | 0.0 | 0.00 | 0.48 | 0.00 | 58 | 1020.1 |
| 20260901150230 | 61 | 158 | 0.0 | 0.0 | 0.00 | 0.48 | 0.00 | 58 | 1020.0 |
| 20260901145724 | 61 | 158 | 0.0 | 2.0 | 0.00 | 0.48 | 0.00 | 58 | 1020.0 |
| 20260901145217 | 61 | 158 | 0.0 | 2.0 | 0.00 | 0.48 | 0.00 | 59 | 1019.9 |
| 20260901144731 | 61 | 158 | 0.0 | 2.0 | 0.00 | 0.48 | 0.00 | 60 | 1020.0 |
| 20260901144225 | 60 | 158 | 0.0 | 2.0 | 0.00 | 0.48 | 0.00 | 62 | 1019.9 |
| 20260901143719 | 60 | 158 | 0.0 | 2.0 | 0.00 | 0.48 | 0.00 | 65 | 1019.9 |
| 20260901143213 | 59 | 158 | 0.0 | 2.0 | 0.00 | 0.48 | 0.00 | 66 | 1019.8 |
| 20260901142731 | 59 | 158 | 1.0 | 2.0 | 0.00 | 0.48 | 0.00 | 66 | 1019.8 |
| 20260901142225 | 59 | 158 | 0.0 | 2.0 | 0.00 | 0.48 | 0.00 | 65 | 1019.7 |
| 20260901141719 | 58 | 158 | 1.0 | 2.0 | 0.00 | 0.48 | 0.00 | 67 | 1019.7 |
| 20260901141213 | 58 | 158 | 0.0 | 2.0 | 0.00 | 0.48 | 0.00 | 66 | 1019.6 |
| 20260901140727 | 58 | 158 | 0.0 | 3.0 | 0.00 | 0.48 | 0.00 | 66 | 1019.5 |
| 20260901140222 | 57 | 158 | 2.0 | 3.0 | 0.00 | 0.48 | 0.00 | 66 | 1019.6 |
| 20260901135716 | 56 | 158 | 1.0 | 3.0 | 0.00 | 0.48 | 0.00 | 67 | 1019.6 |
| 20260901135214 | 56 | 158 | 1.0 | 5.0 | 0.00 | 0.48 | 0.00 | 68 | 1019.5 |
| 20260901134728 | 55 | 158 | 2.0 | 5.0 | 0.00 | 0.48 | 0.00 | 68 | 1019.5 |
| 20260901134222 | 55 | 158 | 3.0 | 5.0 | 0.00 | 0.48 | 0.00 | 68 | 1019.5 |
| 20260901133716 | 55 | 158 | 2.0 | 5.0 | 0.00 | 0.48 | 0.00 | 67 | 1019.5 |
| 20260901133229 | 55 | 158 | 3.0 | 5.0 | 0.00 | 0.48 | 0.00 | 67 | 1019.5 |
| 20260901132723 | 55 | 5 | 1.0 | 5.0 | 0.00 | 0.48 | 0.00 | 67 | 1019.5 |
| 20260901132217 | 55 | 62 | 4.0 | 6.0 | 0.00 | 0.48 | 0.00 | 67 | 1019.4 |
| 20260901131731 | 55 | 62 | 4.0 | 6.0 | 0.00 | 0.48 | 0.00 | 68 | 1019.3 |
| 20260901131229 | 54 | 62 | 4.0 | 6.0 | 0.00 | 0.48 | 0.00 | 68 | 1019.3 |
| 20260901130743 | 54 | 62 | 4.0 | 6.0 | 0.00 | 0.48 | 0.00 | 69 | 1019.3 |
| 20260901130217 | 54 | 59 | 3.0 | 5.0 | 0.00 | 0.48 | 0.00 | 69 | 1019.1 |
| 20260901125732 | 54 | 59 | 3.0 | 4.0 | 0.00 | 0.48 | 0.00 | 69 | 1019.1 |
| 20260901125225 | 53 | 59 | 2.0 | 3.0 | 0.00 | 0.48 | 0.00 | 69 | 1019.1 |
| 20260901124719 | 54 | 59 | 2.0 | 3.0 | 0.00 | 0.48 | 0.00 | 69 | 1019.1 |
| 20260901124213 | 54 | 59 | 1.0 | 4.0 | 0.00 | 0.48 | 0.00 | 68 | 1019.0 |
| 20260901123726 | 53 | 59 | 2.0 | 4.0 | 0.00 | 0.48 | 0.00 | 69 | 1019.1 |
| 20260901123221 | 54 | 59 | 0.0 | 4.0 | 0.00 | 0.48 | 0.00 | 70 | 1018.9 |
| 20260901122718 | 53 | 59 | 2.0 | 4.0 | 0.00 | 0.48 | 0.00 | 70 | 1018.9 |
| 20260901122232 | 53 | 59 | 3.0 | 4.0 | 0.00 | 0.48 | 0.00 | 70 | 1019.0 |
| 20260901121727 | 53 | 59 | 1.0 | 2.0 | 0.00 | 0.48 | 0.00 | 69 | 1019.0 |
| 20260901121222 | 53 | 60 | 0.0 | 2.0 | 0.00 | 0.48 | 0.00 | 69 | 1019.0 |
| 20260901120735 | 54 | 60 | 0.0 | 3.0 | 0.00 | 0.48 | 0.00 | 68 | 1019.0 |
| 20260901120230 | 54 | 59 | 1.0 | 4.0 | 0.00 | 0.48 | 0.00 | 68 | 1019.0 |
| 20260901115723 | 54 | 59 | 3.0 | 4.0 | 0.00 | 0.48 | 0.00 | 68 | 1018.9 |
| 20260901115217 | 54 | 60 | 3.0 | 4.0 | 0.00 | 0.48 | 0.00 | 67 | 1018.9 |
| 20260901114714 | 55 | 59 | 3.0 | 6.0 | 0.00 | 0.48 | 0.00 | 66 | 1018.8 |
| 20260901114229 | 55 | 59 | 2.0 | 6.0 | 0.00 | 0.48 | 0.00 | 66 | 1018.7 |
| 20260901113743 | 55 | 59 | 4.0 | 6.0 | 0.00 | 0.48 | 0.00 | 66 | 1018.7 |
| 20260901113216 | 55 | 59 | 4.0 | 6.0 | 0.00 | 0.48 | 0.00 | 67 | 1018.6 |
| 20260901112750 | 55 | 59 | 4.0 | 6.0 | 0.00 | 0.48 | 0.00 | 67 | 1018.7 |
| 20260901112223 | 55 | 59 | 3.0 | 5.0 | 0.00 | 0.48 | 0.00 | 67 | 1018.7 |
| 20260901111716 | 54 | 60 | 4.0 | 5.0 | 0.00 | 0.48 | 0.00 | 68 | 1018.8 |
| 20260901111230 | 54 | 59 | 3.0 | 5.0 | 0.00 | 0.48 | 0.00 | 68 | 1018.8 |
| 20260901110724 | 54 | 59 | 3.0 | 5.0 | 0.00 | 0.48 | 0.00 | 68 | 1018.9 |
| 20260901110224 | 54 | 59 | 3.0 | 5.0 | 0.00 | 0.48 | 0.00 | 69 | 1019.0 |
| 20260901105717 | 54 | 59 | 0.0 | 4.0 | 0.00 | 0.48 | 0.00 | 69 | 1019.0 |
| 20260901105252 | 54 | 59 | 3.0 | 4.0 | 0.00 | 0.48 | 0.00 | 69 | 1019.0 |
| 20260901104724 | 54 | 59 | 0.0 | 5.0 | 0.00 | 0.48 | 0.00 | 69 | 1019.0 |
| 20260901104219 | 53 | 59 | 2.0 | 5.0 | 0.00 | 0.48 | 0.00 | 70 | 1019.0 |
| 20260901103713 | 54 | 59 | 1.0 | 4.0 | 0.00 | 0.48 | 0.00 | 69 | 1019.0 |
| 20260901103227 | 54 | 59 | 3.0 | 6.0 | 0.00 | 0.48 | 0.00 | 70 | 1019.0 |
| 20260901102721 | 54 | 59 | 3.0 | 6.0 | 0.00 | 0.48 | 0.00 | 70 | 1019.0 |
| 20260901102239 | 53 | 59 | 4.0 | 6.0 | 0.00 | 0.48 | 0.00 | 70 | 1019.0 |
| 20260901101732 | 53 | 59 | 3.0 | 5.0 | 0.00 | 0.48 | 0.00 | 70 | 1019.1 |
| 20260901101246 | 53 | 59 | 3.0 | 6.0 | 0.00 | 0.48 | 0.00 | 70 | 1019.0 |
| 20260901100718 | 53 | 59 | 2.0 | 6.0 | 0.00 | 0.48 | 0.00 | 70 | 1019.0 |
| 20260901100214 | 53 | 59 | 2.0 | 6.0 | 0.00 | 0.48 | 0.00 | 71 | 1019.0 |
| 20260901095728 | 53 | 59 | 3.0 | 5.0 | 0.00 | 0.48 | 0.00 | 71 | 1018.9 |
| 20260901095222 | 53 | 59 | 3.0 | 5.0 | 0.00 | 0.48 | 0.00 | 71 | 1019.0 |
| 20260901094716 | 53 | 59 | 4.0 | 5.0 | 0.00 | 0.48 | 0.00 | 71 | 1019.0 |
| 20260901094214 | 53 | 59 | 4.0 | 5.0 | 0.00 | 0.48 | 0.00 | 71 | 1019.0 |
| 20260901093727 | 53 | 59 | 3.0 | 6.0 | 0.00 | 0.48 | 0.00 | 71 | 1019.1 |
| 20260901093222 | 53 | 59 | 2.0 | 6.0 | 0.00 | 0.48 | 0.00 | 71 | 1019.1 |
| 20260901092715 | 53 | 57 | 5.0 | 6.0 | 0.00 | 0.48 | 0.00 | 71 | 1019.1 |
| 20260901092230 | 53 | 57 | 4.0 | 4.0 | 0.00 | 0.48 | 0.00 | 71 | 1019.2 |
| 20260901091723 | 53 | 57 | 2.0 | 5.0 | 0.00 | 0.48 | 0.00 | 70 | 1019.3 |
| 20260901091218 | 53 | 57 | 3.0 | 6.0 | 0.00 | 0.48 | 0.00 | 71 | 1019.3 |
| 20260901090731 | 54 | 57 | 4.0 | 6.0 | 0.00 | 0.48 | 0.00 | 71 | 1019.2 |
| 20260901090247 | 53 | 57 | 4.0 | 6.0 | 0.00 | 0.48 | 0.00 | 71 | 1019.3 |
| 20260901085723 | 53 | 56 | 3.0 | 4.0 | 0.00 | 0.48 | 0.00 | 72 | 1019.2 |
| 20260901085218 | 53 | 56 | 2.0 | 3.0 | 0.00 | 0.48 | 0.00 | 72 | 1019.2 |
| 20260901084732 | 53 | 56 | 0.0 | 3.0 | 0.00 | 0.48 | 0.00 | 70 | 1019.2 |
| 20260901084226 | 54 | 56 | 3.0 | 3.0 | 0.00 | 0.48 | 0.00 | 70 | 1019.2 |
| 20260901083720 | 54 | 56 | 2.0 | 3.0 | 0.00 | 0.48 | 0.00 | 71 | 1019.2 |
| 20260901083214 | 54 | 56 | 3.0 | 4.0 | 0.00 | 0.48 | 0.00 | 71 | 1019.3 |
| 20260901082727 | 53 | 56 | 2.0 | 4.0 | 0.00 | 0.48 | 0.00 | 71 | 1019.3 |
| 20260901082226 | 54 | 56 | 2.0 | 4.0 | 0.00 | 0.48 | 0.00 | 71 | 1019.2 |
| 20260901081719 | 54 | 56 | 2.0 | 4.0 | 0.00 | 0.48 | 0.00 | 71 | 1019.2 |
| 20260901081213 | 53 | 56 | 3.0 | 4.0 | 0.00 | 0.48 | 0.00 | 72 | 1019.3 |
| 20260901080729 | 53 | 56 | 2.0 | 4.0 | 0.00 | 0.48 | 0.00 | 72 | 1019.3 |
| 20260901080224 | 53 | 56 | 1.0 | 3.0 | 0.00 | 0.48 | 0.00 | 72 | 1019.5 |
| 20260901075717 | 53 | 56 | 1.0 | 3.0 | 0.00 | 0.48 | 0.00 | 72 | 1019.4 |
| 20260901075231 | 53 | 56 | 1.0 | 3.0 | 0.00 | 0.48 | 0.00 | 72 | 1019.5 |
| 20260901074725 | 53 | 56 | 0.0 | 2.0 | 0.00 | 0.48 | 0.00 | 72 | 1019.5 |
| 20260901074223 | 53 | 56 | 0.0 | 0.0 | 0.00 | 0.48 | 0.00 | 72 | 1019.5 |
| 20260901073717 | 54 | 56 | 0.0 | 0.0 | 0.00 | 0.48 | 0.00 | 72 | 1019.5 |
| 20260901073231 | 54 | 56 | 0.0 | 2.0 | 0.00 | 0.48 | 0.00 | 72 | 1019.5 |
| 20260901072725 | 54 | 56 | 1.0 | 2.0 | 0.00 | 0.48 | 0.00 | 72 | 1019.5 |
| 20260901072219 | 54 | 56 | 0.0 | 3.0 | 0.00 | 0.48 | 0.00 | 72 | 1019.5 |
| 20260901071713 | 54 | 56 | 1.0 | 3.0 | 0.00 | 0.48 | 0.00 | 70 | 1019.4 |
| 20260901071227 | 54 | 56 | 2.0 | 5.0 | 0.00 | 0.48 | 0.00 | 70 | 1019.4 |
| 20260901070726 | 54 | 56 | 3.0 | 5.0 | 0.00 | 0.48 | 0.00 | 70 | 1019.3 |
| 20260901070221 | 54 | 56 | 4.0 | 5.0 | 0.00 | 0.48 | 0.00 | 69 | 1019.2 |
| 20260901065736 | 55 | 56 | 2.0 | 3.0 | 0.00 | 0.48 | 0.00 | 68 | 1019.2 |
| 20260901065229 | 55 | 56 | 2.0 | 5.0 | 0.00 | 0.48 | 0.00 | 66 | 1019.3 |
| 20260901064722 | 57 | 56 | 2.0 | 6.0 | 0.00 | 0.48 | 0.00 | 64 | 1019.2 |
| 20260901064217 | 56 | 56 | 4.0 | 6.0 | 0.00 | 0.48 | 0.00 | 67 | 1019.5 |
| 20260901063731 | 55 | 57 | 4.0 | 6.0 | 0.00 | 0.48 | 0.00 | 69 | 1019.5 |
| 20260901063225 | 55 | 56 | 3.0 | 6.0 | 0.00 | 0.48 | 0.00 | 69 | 1019.5 |
| 20260901062739 | 55 | 56 | 3.0 | 5.0 | 0.00 | 0.48 | 0.00 | 70 | 1019.5 |
| 20260901062216 | 55 | 56 | 4.0 | 5.0 | 0.00 | 0.48 | 0.00 | 69 | 1019.5 |
| 20260901061730 | 55 | 54 | 3.0 | 5.0 | 0.00 | 0.48 | 0.00 | 69 | 1019.5 |
| 20260901061224 | 55 | 54 | 0.0 | 5.0 | 0.00 | 0.48 | 0.00 | 68 | 1019.4 |
| 20260901060718 | 56 | 54 | 3.0 | 5.0 | 0.00 | 0.48 | 0.00 | 68 | 1019.4 |
| 20260901060213 | 56 | 53 | 1.0 | 7.0 | 0.00 | 0.48 | 0.00 | 67 | 1019.4 |
| 20260901055727 | 56 | 53 | 4.0 | 7.0 | 0.00 | 0.48 | 0.48 | 67 | 1019.4 |
| 20260901055221 | 56 | 54 | 5.0 | 7.0 | 0.00 | 0.48 | 0.48 | 67 | 1019.6 |
| 20260901054718 | 56 | 55 | 4.0 | 6.0 | 0.00 | 0.48 | 0.48 | 67 | 1019.6 |
| 20260901054213 | 56 | 55 | 2.0 | 3.0 | 0.00 | 0.48 | 0.48 | 67 | 1019.6 |
| 20260901053727 | 56 | 55 | 1.0 | 5.0 | 0.00 | 0.48 | 0.48 | 67 | 1019.7 |
| 20260901053221 | 56 | 55 | 2.0 | 7.0 | 0.00 | 0.48 | 0.48 | 66 | 1019.8 |
| 20260901052714 | 56 | 55 | 3.0 | 7.0 | 0.00 | 0.48 | 0.48 | 66 | 1020.0 |
| 20260901052228 | 57 | 55 | 5.0 | 7.0 | 0.00 | 0.48 | 0.48 | 64 | 1020.0 |
| 20260901051742 | 57 | 55 | 4.0 | 6.0 | 0.00 | 0.48 | 0.48 | 63 | 1020.2 |
| 20260901051215 | 57 | 55 | 4.0 | 6.0 | 0.00 | 0.48 | 0.48 | 64 | 1020.2 |
| 20260901050714 | 57 | 46 | 2.0 | 12.0 | 0.00 | 0.48 | 0.48 | 63 | 1020.3 |
| 20260901050229 | 58 | 46 | 5.0 | 12.0 | 0.00 | 0.48 | 0.48 | 62 | 1020.2 |
| 20260901045722 | 57 | 45 | 9.0 | 11.0 | 0.00 | 0.48 | 0.48 | 64 | 1020.0 |
| 20260901045216 | 57 | 44 | 5.0 | 12.0 | 0.00 | 0.48 | 0.48 | 65 | 1020.0 |
| 20260901044731 | 57 | 43 | 6.0 | 15.0 | 0.00 | 0.48 | 0.48 | 66 | 1019.7 |
| 20260901044225 | 57 | 49 | 12.0 | 18.0 | 0.00 | 0.48 | 0.48 | 65 | 1019.6 |
| 20260901043718 | 58 | 31 | 12.0 | 18.0 | 0.00 | 0.48 | 0.48 | 62 | 1019.5 |
| 20260901042726 | 63 | 121 | 8.0 | 12.0 | 0.00 | 0.48 | 0.48 | 48 | 1019.0 |
| 20260901042224 | 63 | 144 | 7.0 | 12.0 | 0.00 | 0.48 | 0.48 | 48 | 1019.0 |
| 20260901041718 | 63 | 142 | 4.0 | 13.0 | 0.00 | 0.48 | 0.48 | 50 | 1019.0 |
| 20260901041233 | 63 | 141 | 7.0 | 14.0 | 0.00 | 0.48 | 0.48 | 49 | 1018.9 |
| 20260901040726 | 63 | 146 | 9.0 | 15.0 | 0.00 | 0.48 | 0.48 | 48 | 1019.3 |
| 20260901040222 | 63 | 155 | 11.0 | 18.0 | 0.00 | 0.48 | 0.48 | 48 | 1019.3 |
| 20260901035735 | 63 | 153 | 12.0 | 23.0 | 0.00 | 0.48 | 0.48 | 49 | 1019.3 |
| 20260901035228 | 62 | 118 | 11.0 | 23.0 | 0.00 | 0.48 | 0.48 | 49 | 1019.2 |
| 20260901034722 | 62 | 132 | 14.0 | 22.0 | 0.01 | 0.48 | 0.48 | 51 | 1019.2 |
| 20260901034220 | 61 | 156 | 13.0 | 24.0 | 0.01 | 0.48 | 0.48 | 52 | 1019.0 |
| 20260901033714 | 61 | 183 | 14.0 | 25.0 | 0.01 | 0.48 | 0.48 | 53 | 1018.9 |
| 20260901033248 | 60 | 136 | 16.0 | 31.0 | 0.02 | 0.48 | 0.48 | 55 | 1018.8 |
| 20260901032721 | 59 | 138 | 15.0 | 31.0 | 0.03 | 0.48 | 0.48 | 59 | 1018.5 |
| 20260901032215 | 58 | 119 | 18.0 | 32.0 | 0.03 | 0.48 | 0.48 | 62 | 1018.6 |
| 20260901031729 | 58 | 116 | 20.0 | 32.0 | 0.04 | 0.48 | 0.48 | 62 | 1019.6 |
| 20260901031243 | 58 | 125 | 17.0 | 24.0 | 0.04 | 0.48 | 0.48 | 64 | 1020.2 |
| 20260901030715 | 58 | 142 | 18.0 | 25.0 | 0.05 | 0.48 | 0.48 | 66 | 1020.8 |
| 20260901030215 | 58 | 155 | 13.0 | 22.0 | 0.05 | 0.48 | 0.48 | 68 | 1021.3 |
| 20260901025728 | 58 | 155 | 11.0 | 22.0 | 0.05 | 0.48 | 0.48 | 69 | 1021.5 |
| 20260901025243 | 58 | 163 | 15.0 | 21.0 | 0.05 | 0.48 | 0.48 | 69 | 1021.7 |
| 20260901024715 | 58 | 144 | 12.0 | 20.0 | 0.04 | 0.47 | 0.47 | 69 | 1021.9 |
| 20260901024229 | 57 | 207 | 10.0 | 20.0 | 0.04 | 0.47 | 0.47 | 70 | 1022.0 |
| 20260901023722 | 57 | 173 | 13.0 | 20.0 | 0.04 | 0.47 | 0.47 | 70 | 1022.2 |
| 20260901023216 | 57 | 214 | 13.0 | 20.0 | 0.03 | 0.46 | 0.46 | 70 | 1022.3 |
| 20260901022730 | 58 | 198 | 14.0 | 21.0 | 0.02 | 0.45 | 0.45 | 70 | 1022.4 |
| 20260901022245 | 58 | 195 | 15.0 | 21.0 | 0.02 | 0.45 | 0.45 | 70 | 1022.3 |
| 20260901021718 | 58 | 190 | 13.0 | 22.0 | 0.01 | 0.44 | 0.44 | 70 | 1022.2 |
| 20260901021236 | 58 | 200 | 15.0 | 22.0 | 0.01 | 0.44 | 0.44 | 69 | 1022.3 |
| 20260901020729 | 59 | 205 | 10.0 | 20.0 | 0.00 | 0.43 | 0.43 | 69 | 1022.2 |
| 20260901020245 | 59 | 217 | 15.0 | 20.0 | 0.00 | 0.43 | 0.43 | 69 | 1022.1 |
| 20260901015717 | 60 | 217 | 10.0 | 18.0 | 0.00 | 0.43 | 0.43 | 69 | 1022.0 |
| 20260901015231 | 60 | 224 | 10.0 | 15.0 | 0.00 | 0.43 | 0.43 | 69 | 1021.9 |
| 20260901014725 | 60 | 218 | 8.0 | 15.0 | 0.00 | 0.43 | 0.43 | 68 | 1021.8 |
| 20260901014219 | 61 | 234 | 11.0 | 18.0 | 0.00 | 0.43 | 0.43 | 66 | 1021.6 |
| 20260901013712 | 62 | 225 | 12.0 | 18.0 | 0.00 | 0.43 | 0.43 | 64 | 1021.5 |
| 20260901013226 | 62 | 217 | 10.0 | 16.0 | 0.00 | 0.43 | 0.43 | 59 | 1021.3 |
| 20260901012723 | 63 | 208 | 8.0 | 16.0 | 0.00 | 0.43 | 0.43 | 56 | 1021.0 |
| 20260901012218 | 63 | 150 | 11.0 | 17.0 | 0.00 | 0.43 | 0.43 | 54 | 1020.7 |
| 20260901011713 | 63 | 157 | 10.0 | 17.0 | 0.00 | 0.43 | 0.43 | 55 | 1020.6 |
| 20260901011227 | 62 | 140 | 11.0 | 20.0 | 0.00 | 0.43 | 0.43 | 56 | 1020.2 |
| 20260901010720 | 62 | 167 | 11.0 | 20.0 | 0.00 | 0.43 | 0.43 | 55 | 1020.0 |
| 20260901010216 | 62 | 136 | 7.0 | 16.0 | 0.00 | 0.43 | 0.43 | 58 | 1019.7 |
| 20260901005729 | 62 | 118 | 10.0 | 20.0 | 0.00 | 0.43 | 0.43 | 58 | 1019.4 |
| 20260901005224 | 63 | 131 | 13.0 | 20.0 | 0.00 | 0.43 | 0.43 | 55 | 1019.7 |
| 20260901004722 | 63 | 126 | 9.0 | 12.0 | 0.01 | 0.43 | 0.43 | 56 | 1019.7 |
| 20260901004215 | 62 | 135 | 3.0 | 18.0 | 0.01 | 0.43 | 0.43 | 57 | 1019.7 |
| 20260901003748 | 62 | 136 | 4.0 | 18.0 | 0.02 | 0.43 | 0.43 | 56 | 1019.5 |
| 20260901003241 | 62 | 141 | 12.0 | 17.0 | 0.02 | 0.43 | 0.43 | 56 | 1019.7 |
| 20260901002714 | 62 | 123 | 12.0 | 17.0 | 0.02 | 0.43 | 0.43 | 58 | 1019.8 |
| 20260901002228 | 61 | 124 | 11.0 | 16.0 | 0.02 | 0.43 | 0.43 | 62 | 1020.2 |
| 20260901001722 | 61 | 129 | 10.0 | 16.0 | 0.03 | 0.43 | 0.43 | 64 | 1020.5 |
| 20260901001216 | 61 | 125 | 12.0 | 16.0 | 0.04 | 0.43 | 0.43 | 64 | 1021.0 |
| 20260901000730 | 60 | 124 | 9.0 | 13.0 | 0.05 | 0.43 | 0.43 | 67 | 1021.2 |
| 20260901000228 | 60 | 114 | 5.0 | 10.0 | 0.05 | 0.43 | 0.43 | 69 | 1021.4 |
| 20260831235722 | 59 | 74 | 3.0 | 6.0 | 0.06 | 0.43 | 0.43 | 69 | 1021.6 |
| 20260831235216 | 60 | 74 | 3.0 | 14.0 | 0.06 | 0.43 | 0.43 | 67 | 1021.9 |
| 20260831234731 | 60 | 73 | 8.0 | 14.0 | 0.06 | 0.42 | 0.42 | 67 | 1022.1 |
| 20260831234245 | 60 | 132 | 8.0 | 10.0 | 0.06 | 0.42 | 0.42 | 69 | 1022.3 |
| 20260831233737 | 60 | 158 | 4.0 | 7.0 | 0.05 | 0.41 | 0.41 | 69 | 1022.9 |
| 20260831233250 | 60 | 158 | 3.0 | 5.0 | 0.05 | 0.41 | 0.41 | 67 | 1023.1 |
| 20260831232721 | 60 | 158 | 1.0 | 5.0 | 0.05 | 0.41 | 0.41 | 67 | 1023.2 |
| 20260831232215 | 60 | 158 | 3.0 | 5.0 | 0.05 | 0.41 | 0.41 | 67 | 1023.2 |
| 20260831231729 | 60 | 158 | 3.0 | 6.0 | 0.04 | 0.40 | 0.40 | 67 | 1023.2 |
| 20260831231228 | 60 | 158 | 3.0 | 7.0 | 0.03 | 0.39 | 0.39 | 66 | 1023.2 |
| 20260831230721 | 60 | 158 | 5.0 | 8.0 | 0.02 | 0.38 | 0.38 | 66 | 1023.1 |
| 20260831230216 | 60 | 158 | 6.0 | 8.0 | 0.02 | 0.38 | 0.38 | 66 | 1023.0 |
| 20260831225730 | 60 | 159 | 5.0 | 9.0 | 0.01 | 0.37 | 0.37 | 66 | 1022.9 |
| 20260831225223 | 60 | 177 | 1.0 | 6.0 | 0.01 | 0.37 | 0.37 | 65 | 1022.9 |
| 20260831224717 | 60 | 177 | 1.0 | 6.0 | 0.00 | 0.36 | 0.36 | 65 | 1022.8 |
| 20260831224232 | 60 | 177 | 4.0 | 6.0 | 0.01 | 0.36 | 0.36 | 65 | 1022.6 |
| 20260831223725 | 60 | 178 | 2.0 | 5.0 | 0.03 | 0.36 | 0.36 | 63 | 1022.6 |
| 20260831223218 | 60 | 177 | 3.0 | 6.0 | 0.04 | 0.36 | 0.36 | 62 | 1022.6 |
| 20260831222736 | 60 | 177 | 4.0 | 6.0 | 0.06 | 0.36 | 0.36 | 63 | 1022.5 |
| 20260831222249 | 60 | 178 | 3.0 | 7.0 | 0.10 | 0.36 | 0.36 | 65 | 1022.4 |
| 20260831221742 | 59 | 177 | 3.0 | 7.0 | 0.13 | 0.36 | 0.36 | 65 | 1022.3 |
| 20260831221235 | 59 | 178 | 4.0 | 7.0 | 0.15 | 0.36 | 0.36 | 65 | 1022.3 |
| 20260831220728 | 60 | 184 | 4.0 | 6.0 | 0.16 | 0.36 | 0.36 | 63 | 1022.4 |
| 20260831220223 | 60 | 194 | 2.0 | 12.0 | 0.20 | 0.36 | 0.36 | 62 | 1022.7 |
| 20260831215716 | 59 | 194 | 4.0 | 12.0 | 0.35 | 0.36 | 0.36 | 63 | 1022.4 |
| 20260831215251 | 59 | 145 | 8.0 | 12.0 | 0.36 | 0.36 | 0.36 | 66 | 1022.2 |
| 20260831214724 | 59 | 124 | 6.0 | 14.0 | 0.36 | 0.36 | 0.36 | 66 | 1022.2 |
| 20260831214219 | 58 | 99 | 8.0 | 14.0 | 0.34 | 0.34 | 0.34 | 65 | 1021.7 |
| 20260831213717 | 59 | 138 | 6.0 | 10.0 | 0.33 | 0.33 | 0.33 | 64 | 1021.8 |
| 20260831213231 | 59 | 181 | 4.0 | 17.0 | 0.32 | 0.32 | 0.32 | 63 | 1021.9 |
| 20260831212725 | 59 | 190 | 6.0 | 26.0 | 0.30 | 0.30 | 0.30 | 61 | 1021.6 |
| 20260831212219 | 60 | 205 | 15.0 | 26.0 | 0.26 | 0.26 | 0.26 | 60 | 1021.6 |
| 20260831211732 | 60 | 200 | 14.0 | 28.0 | 0.23 | 0.23 | 0.23 | 60 | 1021.5 |
| 20260831211227 | 61 | 205 | 13.0 | 27.0 | 0.21 | 0.21 | 0.21 | 57 | 1020.7 |
| 20260831210720 | 61 | 234 | 16.0 | 32.0 | 0.20 | 0.20 | 0.20 | 56 | 1020.7 |
| 20260831210236 | 64 | 191 | 14.0 | 32.0 | 0.16 | 0.16 | 0.16 | 51 | 1020.6 |
| 20260831205749 | 69 | 205 | 16.0 | 29.0 | 0.01 | 0.01 | 0.01 | 43 | 1020.0 |
| 20260831205225 | 71 | 231 | 19.0 | 29.0 | 0.00 | 0.00 | 0.00 | 35 | 1019.2 |
| 20260831204719 | 74 | 211 | 17.0 | 28.0 | 0.00 | 0.00 | 0.00 | 30 | 1018.4 |
| 20260831204234 | 79 | 227 | 7.0 | 17.0 | 0.00 | 0.00 | 0.00 | 22 | 1018.0 |
| 20260831203727 | 80 | 131 | 10.0 | 12.0 | 0.00 | 0.00 | 0.00 | 22 | 1017.0 |
| 20260831203221 | 80 | 123 | 7.0 | 12.0 | 0.00 | 0.00 | 0.00 | 23 | 1016.9 |
| 20260831202715 | 79 | 100 | 5.0 | 15.0 | 0.00 | 0.00 | 0.00 | 24 | 1016.7 |
| 20260831202249 | 80 | 108 | 7.0 | 19.0 | 0.00 | 0.00 | 0.00 | 24 | 1016.7 |
| 20260831201722 | 81 | 131 | 13.0 | 19.0 | 0.00 | 0.00 | 0.00 | 23 | 1016.7 |
| 20260831201220 | 81 | 134 | 12.0 | 18.0 | 0.00 | 0.00 | 0.00 | 22 | 1016.9 |
| 20260831200714 | 82 | 141 | 10.0 | 19.0 | 0.00 | 0.00 | 0.00 | 22 | 1017.2 |
| 20260831200229 | 82 | 127 | 11.0 | 22.0 | 0.00 | 0.00 | 0.00 | 22 | 1017.4 |
| 20260831195722 | 82 | 137 | 12.0 | 24.0 | 0.00 | 0.00 | 0.00 | 22 | 1017.6 |
| 20260831195217 | 85 | 136 | 13.0 | 24.0 | 0.00 | 0.00 | 0.00 | 21 | 1017.6 |
| 20260831194732 | 86 | 211 | 6.0 | 14.0 | 0.00 | 0.00 | 0.00 | 17 | 1017.4 |
| 20260831194226 | 85 | 221 | 6.0 | 9.0 | 0.00 | 0.00 | 0.00 | 17 | 1017.4 |
| 20260831193720 | 83 | 223 | 4.0 | 8.0 | 0.00 | 0.00 | 0.00 | 18 | 1017.4 |
| 20260831193218 | 82 | 222 | 1.0 | 8.0 | 0.00 | 0.00 | 0.00 | 19 | 1017.5 |
| 20260831192732 | 82 | 222 | 6.0 | 8.0 | 0.00 | 0.00 | 0.00 | 20 | 1017.6 |
| 20260831192226 | 82 | 222 | 4.0 | 8.0 | 0.00 | 0.00 | 0.00 | 21 | 1017.9 |
| 20260831191740 | 82 | 222 | 5.0 | 10.0 | 0.00 | 0.00 | 0.00 | 20 | 1018.1 |
| 20260831191233 | 82 | 222 | 6.0 | 10.0 | 0.00 | 0.00 | 0.00 | 20 | 1018.0 |
| 20260831190726 | 82 | 221 | 6.0 | 11.0 | 0.00 | 0.00 | 0.00 | 20 | 1018.2 |